{"data":{"norad_id":68063,"intl_designator":"2026-041Z","name":"STARLINK-37000","alt_names":[],"object_type":"PAYLOAD","status":"ACTIVE","operator":null,"country":"US","launch_date":"2026-03-02","launch_site_code":"AFETR","launch_vehicle":null,"mission":null,"orbit_class":"UNKNOWN","rcs_meters":null,"size_class":null,"mass_kg":null,"dimensions":null,"purposes":["comms"],"wikipedia_slug":null,"has_3d_model":false,"image_url":null,"decayed_at":null,"tle_current":{"epoch":"2026-05-25T03:24:27.688896Z","epoch_age_seconds":72956,"freshness":"FRESH","line1":"1 68063U 26041Z   26145.14198714  .00024829  00000+0  74354-3 0  9999","line2":"2 68063  53.1600  53.3354 0001062  78.2164 281.8957 15.34400105 13119","mean_motion":15.34400105,"eccentricity":0.0001062,"inclination_deg":53.16,"raan_deg":53.3354,"arg_perigee_deg":78.2164,"mean_anomaly_deg":281.8957,"bstar":0.00074354,"rev_number":1311,"period_min":93.847751659271,"perigee_km":461.97643092463,"apogee_km":463.42942532536,"semimajor_km":6840.839928125,"source":"CELESTRAK","updated_at":"2026-05-25T13:38:21.815534Z"}}}